Location: Saratoga Springs
(43.0831°N, 73.7850°W)
Time: 02:51:48
(UTC-04:00)

Vanguard 2 Rocket - Pass Details

Date: 23 April 2024
Orbit: 556 x 3304 km, 32.9° (Epoch: 18 May)

Event Time Altitude Azimuth Distance (km) Brightness Sun altitude
Rises 23:06:36 0° 254° (WSW) 6,134 11.3 -28.8°
Reaches altitude 10° 23:10:14 10° 251° (WSW) 5,408 10.9 -29.2°
Maximum altitude 23:27:29 62° 177° (S) 3,549 9.4 -30.6°
Drops below altitude 10° 23:46:44 10° 104° (ESE) 5,947 10.7 -31.9°
Sets 23:50:57 0° 101° (E) 6,748 11.1 -32.1°
